STARLINK-30153 (57510 NORAD) Tracking and Keplerian Element Data

This shows tracking and keplerian element data for the satellite.

Feedback or suggestion? Click here.




ElementValue
Catalog57510
NameSTARLINK-30153
Epoch Orbit2524
Epoch Day13.23473083
Epoch Year2024
RAAN331.005
Inclination43.0041
Eccentricity0.0001039
Argument of Perigee276.0872
Mean Anonmoly83.9852
Mean Motion15.02566121
Decay Rate0.00029816
L11 57510U 23113R 24013.23473083 .00029816 00000+0 22111-2 0 9992
L22 57510 43.0041 331.0050 0001039 276.0872 83.9852 15.02566121 25246



Live tracking and technical data element details for STARLINK-30153 (NORAD 57510). STARLINK-30153 can be tracked NOW for your location showing map with azimuth and elevation plus other details from your city location.







IsCatalogInMostPopularTable: catalog: 57510, numindb: 29
Update: records affected: 1



GetName: 57510 STARLINK-30153

Hit Count: updated at: Thu, 22 Feb 2024 02:15:04 GMT